This is the latest recevied weather packets stored in our database for station/object KQ4LLM. If no packets are shown the sender has not sent any weather packets the latest 10 day(s).
| Time | Temp. | Humidity | Pressure | Rain* | Wind** | Luminosity | Snow |
|---|---|---|---|---|---|---|---|
| 1788109987 | 27.78° C | 75% | - | 0 mm | - | - | - |
| 1788109681 | 27.78° C | 76% | - | 0 mm | - | - | - |
| 1788109392 | 27.22° C | 76% | - | 0 mm | - | - | - |
| 1788109079 | 27.22° C | 77% | - | 0 mm | - | - | - |
| 1788108775 | 27.22° C | 78% | - | 0 mm | - | - | - |
| 1788108471 | 27.22° C | 79% | - | 0 mm | - | - | - |
| 1788108167 | 26.67° C | 81% | - | 0 mm | - | - | - |
| 1788107863 | 26.67° C | 79% | - | 0 mm | - | - | - |
| 1788107559 | 27.22° C | 79% | - | 0 mm | - | - | - |
| 1788107253 | 26.67° C | 82% | - | 0 mm | - | - | - |
| 1788106949 | 26.11° C | 82% | - | 0 mm | - | - | - |
| 1788106644 | 26.67° C | 82% | - | 0 mm | - | - | - |
| 1788106339 | 26.11° C | 81% | - | 0 mm | - | - | - |
| 1788106035 | 26.11° C | 82% | - | 0 mm | - | - | - |
| 1788105729 | 26.11° C | 83% | - | 0 mm | - | - | - |
| 1788105426 | 26.11° C | 84% | - | 0 mm | - | - | - |
| 1788105122 | 25.56° C | 86% | - | 0 mm | - | - | - |
| 1788104816 | 25.56° C | 84% | - | 0 mm | - | - | - |
| 1788104512 | 25° C | 88% | - | 0 mm | - | - | - |
| 1788104209 | 25.56° C | 87% | - | 0 mm | - | - | - |
| 1788103908 | 25.56° C | 86% | - | 0 mm | - | - | - |
| 1788103607 | 25.56° C | 86% | - | 0 mm | - | - | - |
| 1788103306 | 25° C | 88% | - | 0 mm | - | - | - |
| 1788103001 | 25° C | 88% | - | 0 mm | - | - | - |
| 1788102695 | 25° C | 88% | - | 0 mm | - | - | - |
* Rain latest hour (hover to see other rain measurements)
** Current wind speed in m/s (hover to see current wind gust speed)